NWS Melbourne » East Central Florida Hourly Weather Roundup

MIARWRMLB 000
TTAA00 KMLB 240711
HOURLY WEATHER ROUNDUP AROUND FLORIDA
NATIONAL WEATHER SERVICE OFFICE MELBOURNE FL
300 AM EDT THU APR 24 2014
  
CITY           SKY/WX    TMP DP  RH WIND       PRES   REMARKS
MELBOURNE      CLEAR     66  64  93 W3        29.94S                  
FORT PIERCE    CLEAR     64  61  90 SW3       29.94S                  
ORLANDO INTL   CLEAR     68  63  84 W3        29.95S                  
DAYTONA BEACH  PTCLDY    67  63  87 W3        29.94F                  
VERO BEACH     CLEAR     66  65  96 W5        29.94S                  
$$
...ELSEWHERE ACROSS CENTRAL FLORIDA...
  
CITY           SKY/WX    TMP DP  RH WIND       PRES   REMARKS
PATRICK AFB    CLEAR     69  66  90 W5        29.94F                  
JFK SPACE CTR  CLEAR     64  62  94 SW5       29.94S                  
CAPE CANAVERAL CLEAR     68  65  89 SW2       29.93F                  
ORLANDO EXEC   CLEAR     69  64  84 W5        29.94F                  
LEESBURG       CLEAR     65  63  93 W3        29.96F FOG              
SANFORD        CLEAR     67  64  90 W5        29.94F                  
WINTER HAVEN     N/A    N/A N/A N/A MISG      29.96F                  
OKEECHOBEE     CLEAR     61  59  94 CALM      29.95S                  
TAMPA          PTCLDY    66  64  93 CALM      29.95F                  
$$
...NORTHERN FLORIDA...
  
CITY           SKY/WX    TMP DP  RH WIND       PRES   REMARKS
DELAND         CLEAR     66  63  88 W5        29.95F                  
PALM COAST     CLOUDY    67  64  87 SW3       29.94S                  
ST AUGUSTINE   CLEAR     65  62  90 SW3       29.94F                  
THE VILLAGES   FOG       64  64 100 CALM      29.95F VSB 1/2          
OCALA          PTCLDY    63  57  82 CALM      29.95F                  
GAINESVILLE    MOCLDY    65  64  97 SW5       29.94S FOG              
JACKSONVILLE   MOCLDY    65  63  93 CALM      29.91F                  
TALLAHASSEE    CLEAR     63  59  87 CALM      29.93F                  
$$
...ALONG THE SOUTHEAST COAST TO THE KEYS...
  
CITY           SKY/WX    TMP DP  RH WIND       PRES   REMARKS
STUART         CLEAR     68  64  88 CALM      29.95S                  
WEST PALM BCH  PTCLDY    70  62  76 W6        29.93F                  
MIAMI          PTCLDY    71  64  78 NW5       29.94F                  
KEY WEST       CLEAR     70  66  87 CALM      29.95F                  
$$
...MARINE REPORTS...
  
STATION/POSITION TIME  TEMP    WIND        PRES    WAVE   SWELL
                       AIR SEA DIR/SP/G            HT/PER HT/PER/DIR
                 (UTC) (F)     (DEG/KT/KT) (MB)    (FT/S) (FT/S/D)
ST AUGUSTINE FP  0700   66     230/  3/  4 1014.0F
20NM E CAPE CANA 0700   76 78  150/ 10/ 10 1013.7S   2/ 8   2/ 80/ 8
120 E NEW SMYRNA 0700   74 75  220/  2/  4 1014.2F   2/ 8   2/120/ 8
TRIDENT PIER     0700   71 75  210/  5/  7 1013.2S
SEBASTIAN INLET  0700   70     220/  6     1014.0S
4NM E PORT CANAV 0700      72                N/A     1/ 8
6NM NE FPR INLET 0700      74                N/A     2/ 8
SETTLEMENT PT GB 0700   74     130/  4/  4 1014.2F
$$
  
 


USA.gov is the U.S. government's official web portal to all federal, state and local government web resources and services.